Погода в Нижнем Таканыше

Россия / Республика Татарстан     55°56′01″N   51°02′52″E
темп.,
°C
ветер,
м/с
пор.,
м/с
влажн.,
%
обл.,
%
осадки,
мм/ч
давл.,
гПа
погр.,
м
8 мая, сб
сб800:00+11зюз2377100 0.0 101562
03:00+9з2490100 0.0 101666
06:00+10ссв2388100 0.0 1017272
09:00+12в2282100 0.3 1017303
12:00+14юз576795 1.2 1017994
15:00+16ю345955 1.2 10161073
18:00+15юв236728 0.0 101557
21:00+11юв487994 0.1 1015128
9 мая, вс
вс900:00+10юв348236 0.0 101556
03:00+9юв3582100 0.0 101476
06:00+13юв41271100 0.0 1014372
09:00+18ююв7105331 0.0 1014889
12:00+20ююв7949100 0.0 10141712
15:00+21ю6843100 0.0 10132216
18:00+18ю3562100 0.0 101391
21:00+14ююв336656 0.0 101426
10 мая, пн
пн1000:00+13з4874100 0.0 1016192
03:00+13сз2292100 0.3 101725
06:00+13зюз2290100 0.3 1019169
09:00+14сз5487100 0.4 1020459
12:00+13ссз6581100 0.0 1022546
15:00+13ссз5673100 0.1 1024552
18:00+10ссз5880100 0.0 1026478
21:00+9с51089100 0.0 1027492
11 мая, вт
вт1100:00+6с499680 0.0 1028256
03:00+5с411964 0.0 1029279
06:00+7ссв610790 0.0 1030367
09:00+12ссв57520 0.0 1030853
12:00+16св55394 0.0 10301172
15:00+17ссв55353 0.0 10291353
18:00+15св36525 0.0 1030149
21:00+10св33575 0.0 103128
12 мая, ср
ср1200:00+8св33665 0.0 103132
03:00+7всв22665 0.0 103116
06:00+10всв356174 0.0 1032163
09:00+16в344551 0.0 1032764
12:00+19в3442100 0.0 10311149
15:00+20в234310 0.0 10301277
18:00+19вюв225713 0.0 102914
21:00+14в006575 0.0 102910